owner,sensor,date,latitude,longitude,vertical_datum,direction_of_sea_water_velocity,sea_water_speed,upward_sea_water_velocity,qcFlag 
TABS,ioos:station:wmo:42043:1,2019-10-01T04:00:00Z,28.9818,-94.9186,-2.0,245.0,25.34,-99999.0,'11111222,11111222,99999999' 
TABS,ioos:station:wmo:42043:1,2019-10-01T05:00:00Z,28.9818,-94.9186,-2.0,270.9,22.91,-99999.0,'11111222,11111222,99999999' 
TABS,ioos:station:wmo:42043:1,2019-10-01T05:30:00Z,28.9818,-94.9186,-2.0,269.5,21.02,-99999.0,'11111222,11111222,99999999' 
TABS,ioos:station:wmo:42043:1,2019-10-01T06:30:00Z,28.9818,-94.9186,-2.0,269.6,40.87,-99999.0,'11111222,11111222,99999999' 
TABS,ioos:station:wmo:42043:1,2019-10-01T08:00:00Z,28.9818,-94.9186,-2.0,264.1,43.39,-99999.0,'11111222,11111222,99999999' 
TABS,ioos:station:wmo:42043:1,2019-10-01T09:00:00Z,28.9818,-94.9186,-2.0,266.5,49.83,-99999.0,'11111222,11111222,99999999' 
TABS,ioos:station:wmo:42043:1,2019-10-01T10:00:00Z,28.9818,-94.9186,-2.0,264.9,40.26,-99999.0,'11111222,11111222,99999999' 
TABS,ioos:station:wmo:42043:1,2019-10-01T12:00:00Z,28.9818,-94.9186,-2.0,245.4,33.39,-99999.0,'11111222,11111222,99999999' 
TABS,ioos:station:wmo:42043:1,2019-10-01T13:00:00Z,28.9818,-94.9186,-2.0,233.9,41.75,-99999.0,'11111222,11111222,99999999' 
TABS,ioos:station:wmo:42043:1,2019-10-01T14:00:00Z,28.9818,-94.9186,-2.0,236.3,42.79,-99999.0,'11111222,11111222,99999999' 
TABS,ioos:station:wmo:42043:1,2019-10-01T15:00:00Z,28.9818,-94.9186,-2.0,229.0,28.82,-99999.0,'11111222,11111222,99999999' 
TABS,ioos:station:wmo:42043:1,2019-10-01T16:00:00Z,28.9818,-94.9186,-2.0,238.1,27.13,-99999.0,'11111222,11111222,99999999' 
TABS,ioos:station:wmo:42043:1,2019-10-01T17:00:00Z,28.9818,-94.9186,-2.0,241.7,22.93,-99999.0,'11111222,11111222,99999999' 
TABS,ioos:station:wmo:42043:1,2019-10-01T18:00:00Z,28.9818,-94.9186,-2.0,217.7,37.01,-99999.0,'11111222,11111222,99999999' 
TABS,ioos:station:wmo:42043:1,2019-10-01T19:00:00Z,28.9818,-94.9186,-2.0,196.9,42.02,-99999.0,'11111222,11111222,99999999' 
TABS,ioos:station:wmo:42043:1,2019-10-01T20:00:00Z,28.9818,-94.9186,-2.0,220.1,41.06,-99999.0,'11111222,11111222,99999999' 
TABS,ioos:station:wmo:42043:1,2019-10-01T21:00:00Z,28.9818,-94.9186,-2.0,243.9,30.61,-99999.0,'11111222,11111222,99999999' 
TABS,ioos:station:wmo:42043:1,2019-10-01T22:00:00Z,28.9818,-94.9186,-2.0,262.2,26.33,-99999.0,'11111222,11111222,99999999' 
TABS,ioos:station:wmo:42043:1,2019-10-01T23:00:00Z,28.9818,-94.9186,-2.0,268.8,24.18,-99999.0,'11111222,11111222,99999999' 
TABS,ioos:station:wmo:42043:1,2019-10-01T23:30:00Z,28.9818,-94.9186,-2.0,280.0,22.77,-99999.0,'11111222,11111222,99999999' 
TABS,ioos:station:wmo:42043:1,2019-10-02T04:00:00Z,28.9818,-94.9186,-2.0,287.3,22.13,-99999.0,'11111222,11111222,99999999' 
TABS,ioos:station:wmo:42043:1,2019-10-02T05:00:00Z,28.9818,-94.9186,-2.0,297.2,24.45,-99999.0,'11111222,11111222,99999999' 
TABS,ioos:station:wmo:42043:1,2019-10-02T06:00:00Z,28.9818,-94.9186,-2.0,305.1,24.89,-99999.0,'11111222,11111222,99999999' 
TABS,ioos:station:wmo:42043:1,2019-10-02T07:00:00Z,28.9818,-94.9186,-2.0,313.6,21.43,-99999.0,'11111222,11111222,99999999' 
TABS,ioos:station:wmo:42043:1,2019-10-02T08:00:00Z,28.9818,-94.9186,-2.0,311.6,16.32,-99999.0,'11111222,11111222,99999999' 
TABS,ioos:station:wmo:42043:1,2019-10-02T09:00:00Z,28.9818,-94.9186,-2.0,299.1,16.31,-99999.0,'11111222,11111222,99999999' 
TABS,ioos:station:wmo:42043:1,2019-10-02T10:00:00Z,28.9818,-94.9186,-2.0,250.4,75.0,-99999.0,'11111222,11111222,99999999' 
TABS,ioos:station:wmo:42043:1,2019-10-02T11:00:00Z,28.9818,-94.9186,-2.0,254.4,72.8,-99999.0,'11111222,11111222,99999999' 
TABS,ioos:station:wmo:42043:1,2019-10-02T12:00:00Z,28.9818,-94.9186,-2.0,242.6,59.61,-99999.0,'11111222,11111222,99999999' 
TABS,ioos:station:wmo:42043:1,2019-10-02T13:00:00Z,28.9818,-94.9186,-2.0,236.1,64.78,-99999.0,'11111222,11111222,99999999' 
TABS,ioos:station:wmo:42043:1,2019-10-02T14:00:00Z,28.9818,-94.9186,-2.0,236.3,63.38,-99999.0,'11111222,11111222,99999999' 
TABS,ioos:station:wmo:42043:1,2019-10-02T15:00:00Z,28.9818,-94.9186,-2.0,242.1,52.49,-99999.0,'11111222,11111222,99999999' 
TABS,ioos:station:wmo:42043:1,2019-10-02T16:00:00Z,28.9818,-94.9186,-2.0,240.3,51.56,-99999.0,'11111222,11111222,99999999' 
TABS,ioos:station:wmo:42043:1,2019-10-02T17:00:00Z,28.9818,-94.9186,-2.0,250.8,66.24,-99999.0,'11111222,11111222,99999999' 
TABS,ioos:station:wmo:42043:1,2019-10-02T18:00:00Z,28.9818,-94.9186,-2.0,252.3,60.16,-99999.0,'11111222,11111222,99999999' 
TABS,ioos:station:wmo:42043:1,2019-10-02T19:00:00Z,28.9818,-94.9186,-2.0,260.3,58.92,-99999.0,'11111222,11111222,99999999' 
TABS,ioos:station:wmo:42043:1,2019-10-02T20:00:00Z,28.9818,-94.9186,-2.0,262.7,60.28,-99999.0,'11111222,11111222,99999999' 
TABS,ioos:station:wmo:42043:1,2019-10-02T21:00:00Z,28.9818,-94.9186,-2.0,262.7,57.87,-99999.0,'11111222,11111222,99999999' 
TABS,ioos:station:wmo:42043:1,2019-10-02T22:00:00Z,28.9818,-94.9186,-2.0,265.4,52.75,-99999.0,'11111222,11111222,99999999' 
TABS,ioos:station:wmo:42043:1,2019-10-02T23:00:00Z,28.9818,-94.9186,-2.0,263.5,49.47,-99999.0,'11111222,11111222,99999999' 
TABS,ioos:station:wmo:42043:1,2019-10-02T23:30:00Z,28.9818,-94.9186,-2.0,262.2,48.6,-99999.0,'11111222,11111222,99999999' 
TABS,ioos:station:wmo:42043:1,2019-10-03T04:00:00Z,28.9818,-94.9186,-2.0,264.5,36.48,-99999.0,'11111222,11111222,99999999' 
TABS,ioos:station:wmo:42043:1,2019-10-03T05:00:00Z,28.9818,-94.9186,-2.0,263.2,33.98,-99999.0,'11111222,11111222,99999999' 
TABS,ioos:station:wmo:42043:1,2019-10-03T06:00:00Z,28.9818,-94.9186,-2.0,269.0,33.15,-99999.0,'11111222,11111222,99999999' 
TABS,ioos:station:wmo:42043:1,2019-10-03T07:00:00Z,28.9818,-94.9186,-2.0,266.0,33.53,-99999.0,'11111222,11111222,99999999' 
TABS,ioos:station:wmo:42043:1,2019-10-03T08:00:00Z,28.9818,-94.9186,-2.0,262.9,31.1,-99999.0,'11111222,11111222,99999999' 
TABS,ioos:station:wmo:42043:1,2019-10-03T09:00:00Z,28.9818,-94.9186,-2.0,265.3,32.32,-99999.0,'11111222,11111222,99999999' 
TABS,ioos:station:wmo:42043:1,2019-10-03T10:00:00Z,28.9818,-94.9186,-2.0,252.9,32.51,-99999.0,'11111222,11111222,99999999' 
TABS,ioos:station:wmo:42043:1,2019-10-03T11:00:00Z,28.9818,-94.9186,-2.0,249.9,33.8,-99999.0,'11111222,11111222,99999999' 
TABS,ioos:station:wmo:42043:1,2019-10-03T12:00:00Z,28.9818,-94.9186,-2.0,234.8,34.24,-99999.0,'11111222,11111222,99999999' 
TABS,ioos:station:wmo:42043:1,2019-10-03T13:00:00Z,28.9818,-94.9186,-2.0,236.7,41.35,-99999.0,'11111222,11111222,99999999' 
TABS,ioos:station:wmo:42043:1,2019-10-03T14:00:00Z,28.9818,-94.9186,-2.0,232.1,39.44,-99999.0,'11111222,11111222,99999999' 
TABS,ioos:station:wmo:42043:1,2019-10-03T15:00:00Z,28.9818,-94.9186,-2.0,237.9,48.97,-99999.0,'11111222,11111222,99999999' 
TABS,ioos:station:wmo:42043:1,2019-10-03T16:00:00Z,28.9818,-94.9186,-2.0,235.4,54.33,-99999.0,'11111222,11111222,99999999' 
TABS,ioos:station:wmo:42043:1,2019-10-03T17:00:00Z,28.9818,-94.9186,-2.0,232.1,57.88,-99999.0,'11111222,11111222,99999999' 
TABS,ioos:station:wmo:42043:1,2019-10-03T18:00:00Z,28.9818,-94.9186,-2.0,229.8,60.74,-99999.0,'11111222,11111222,99999999' 
TABS,ioos:station:wmo:42043:1,2019-10-03T19:00:00Z,28.9818,-94.9186,-2.0,228.4,57.8,-99999.0,'11111222,11111222,99999999' 
TABS,ioos:station:wmo:42043:1,2019-10-03T19:30:00Z,28.9818,-94.9186,-2.0,231.7,59.1,-99999.0,'11111222,11111222,99999999' 
TABS,ioos:station:wmo:42043:1,2019-10-03T21:30:00Z,28.9818,-94.9186,-2.0,233.9,54.92,-99999.0,'11111222,11111222,99999999' 
TABS,ioos:station:wmo:42043:1,2019-10-03T23:00:00Z,28.9818,-94.9186,-2.0,237.7,54.39,-99999.0,'11111222,11111222,99999999' 
TABS,ioos:station:wmo:42043:1,2019-10-03T23:30:00Z,28.9818,-94.9186,-2.0,238.0,49.77,-99999.0,'11111222,11111222,99999999' 
TABS,ioos:station:wmo:42043:1,2019-10-04T04:00:00Z,28.9818,-94.9186,-2.0,215.8,50.72,-99999.0,'11111222,11111222,99999999' 
TABS,ioos:station:wmo:42043:1,2019-10-04T05:00:00Z,28.9818,-94.9186,-2.0,214.9,52.39,-99999.0,'11111222,11111222,99999999' 
TABS,ioos:station:wmo:42043:1,2019-10-04T06:00:00Z,28.9818,-94.9186,-2.0,209.9,56.39,-99999.0,'11111222,11111222,99999999' 
TABS,ioos:station:wmo:42043:1,2019-10-04T07:00:00Z,28.9818,-94.9186,-2.0,207.1,54.41,-99999.0,'11111222,11111222,99999999' 
TABS,ioos:station:wmo:42043:1,2019-10-04T08:00:00Z,28.9818,-94.9186,-2.0,209.8,52.41,-99999.0,'11111222,11111222,99999999' 
TABS,ioos:station:wmo:42043:1,2019-10-04T09:00:00Z,28.9818,-94.9186,-2.0,188.4,50.09,-99999.0,'11111222,11111222,99999999' 
TABS,ioos:station:wmo:42043:1,2019-10-04T10:00:00Z,28.9818,-94.9186,-2.0,181.4,50.72,-99999.0,'11111222,11111222,99999999' 
TABS,ioos:station:wmo:42043:1,2019-10-04T11:00:00Z,28.9818,-94.9186,-2.0,183.2,56.98,-99999.0,'11111222,11111222,99999999' 
TABS,ioos:station:wmo:42043:1,2019-10-04T12:00:00Z,28.9818,-94.9186,-2.0,180.7,40.0,-99999.0,'11111222,11111222,99999999' 
TABS,ioos:station:wmo:42043:1,2019-10-04T13:00:00Z,28.9818,-94.9186,-2.0,184.5,51.75,-99999.0,'11111222,11111222,99999999' 
TABS,ioos:station:wmo:42043:1,2019-10-04T14:00:00Z,28.9818,-94.9186,-2.0,180.4,49.48,-99999.0,'11111222,11111222,99999999' 
TABS,ioos:station:wmo:42043:1,2019-10-04T15:00:00Z,28.9818,-94.9186,-2.0,187.3,36.99,-99999.0,'11111222,11111222,99999999' 
TABS,ioos:station:wmo:42043:1,2019-10-04T16:00:00Z,28.9818,-94.9186,-2.0,196.7,20.9,-99999.0,'11111222,11111222,99999999' 
TABS,ioos:station:wmo:42043:1,2019-10-04T17:00:00Z,28.9818,-94.9186,-2.0,222.7,12.44,-99999.0,'11111222,11111222,99999999' 
TABS,ioos:station:wmo:42043:1,2019-10-04T18:00:00Z,28.9818,-94.9186,-2.0,248.4,17.97,-99999.0,'11111222,11111222,99999999' 
TABS,ioos:station:wmo:42043:1,2019-10-04T19:00:00Z,28.9818,-94.9186,-2.0,269.1,19.58,-99999.0,'11111222,11111222,99999999' 
TABS,ioos:station:wmo:42043:1,2019-10-04T20:00:00Z,28.9818,-94.9186,-2.0,267.9,18.57,-99999.0,'11111222,11111222,99999999' 
TABS,ioos:station:wmo:42043:1,2019-10-04T21:00:00Z,28.9818,-94.9186,-2.0,254.6,14.86,-99999.0,'11111222,11111222,99999999' 
TABS,ioos:station:wmo:42043:1,2019-10-04T22:00:00Z,28.9818,-94.9186,-2.0,264.6,9.89,-99999.0,'11111222,11111222,99999999' 
TABS,ioos:station:wmo:42043:1,2019-10-04T23:00:00Z,28.9818,-94.9186,-2.0,285.6,8.87,-99999.0,'11111222,11111222,99999999' 
TABS,ioos:station:wmo:42043:1,2019-10-04T23:30:00Z,28.9818,-94.9186,-2.0,295.9,10.43,-99999.0,'11111222,11111222,99999999' 
TABS,ioos:station:wmo:42043:1,2019-10-05T04:00:00Z,28.9818,-94.9186,-2.0,139.0,15.59,-99999.0,'11111222,11111222,99999999' 
TABS,ioos:station:wmo:42043:1,2019-10-05T05:00:00Z,28.9818,-94.9186,-2.0,149.2,20.59,-99999.0,'11111222,11111222,99999999' 
TABS,ioos:station:wmo:42043:1,2019-10-05T06:00:00Z,28.9818,-94.9186,-2.0,143.5,18.11,-99999.0,'11111222,11111222,99999999' 
TABS,ioos:station:wmo:42043:1,2019-10-05T07:00:00Z,28.9818,-94.9186,-2.0,168.2,14.89,-99999.0,'11111222,11111222,99999999' 
TABS,ioos:station:wmo:42043:1,2019-10-05T08:00:00Z,28.9818,-94.9186,-2.0,177.0,15.5,-99999.0,'11111222,11111222,99999999' 
TABS,ioos:station:wmo:42043:1,2019-10-05T09:00:00Z,28.9818,-94.9186,-2.0,198.4,12.14,-99999.0,'11111222,11111222,99999999' 
TABS,ioos:station:wmo:42043:1,2019-10-05T10:00:00Z,28.9818,-94.9186,-2.0,185.6,9.77,-99999.0,'11111222,11111222,99999999' 
TABS,ioos:station:wmo:42043:1,2019-10-05T11:00:00Z,28.9818,-94.9186,-2.0,203.9,11.41,-99999.0,'11111222,11111222,99999999' 
TABS,ioos:station:wmo:42043:1,2019-10-05T12:00:00Z,28.9818,-94.9186,-2.0,232.5,6.72,-99999.0,'11111222,11111222,99999999' 
TABS,ioos:station:wmo:42043:1,2019-10-05T13:00:00Z,28.9818,-94.9186,-2.0,300.9,4.05,-99999.0,'11111222,11111222,99999999' 
TABS,ioos:station:wmo:42043:1,2019-10-05T14:00:00Z,28.9818,-94.9186,-2.0,25.4,2.84,-99999.0,'11133222,11111222,99999999' 
TABS,ioos:station:wmo:42043:1,2019-10-05T15:00:00Z,28.9818,-94.9186,-2.0,253.5,8.94,-99999.0,'11111222,11111222,99999999' 
TABS,ioos:station:wmo:42043:1,2019-10-05T16:00:00Z,28.9818,-94.9186,-2.0,279.6,7.03,-99999.0,'11111222,11111222,99999999' 
TABS,ioos:station:wmo:42043:1,2019-10-05T17:00:00Z,28.9818,-94.9186,-2.0,287.9,6.98,-99999.0,'11111222,11111222,99999999' 
TABS,ioos:station:wmo:42043:1,2019-10-05T18:00:00Z,28.9818,-94.9186,-2.0,245.8,8.68,-99999.0,'11111222,11111222,99999999' 
TABS,ioos:station:wmo:42043:1,2019-10-05T19:00:00Z,28.9818,-94.9186,-2.0,241.5,5.77,-99999.0,'11111222,11111222,99999999' 
TABS,ioos:station:wmo:42043:1,2019-10-05T20:00:00Z,28.9818,-94.9186,-2.0,229.0,7.87,-99999.0,'11111222,11111222,99999999' 
TABS,ioos:station:wmo:42043:1,2019-10-05T21:00:00Z,28.9818,-94.9186,-2.0,284.2,3.87,-99999.0,'11111222,11111222,99999999' 
TABS,ioos:station:wmo:42043:1,2019-10-05T22:00:00Z,28.9818,-94.9186,-2.0,327.6,7.68,-99999.0,'11111222,11111222,99999999' 
TABS,ioos:station:wmo:42043:1,2019-10-05T23:00:00Z,28.9818,-94.9186,-2.0,21.9,11.54,-99999.0,'11111222,11111222,99999999' 
TABS,ioos:station:wmo:42043:1,2019-10-05T23:30:00Z,28.9818,-94.9186,-2.0,35.1,14.35,-99999.0,'11111222,11111222,99999999' 
TABS,ioos:station:wmo:42043:1,2019-10-06T04:00:00Z,28.9818,-94.9186,-2.0,28.1,12.06,-99999.0,'11111222,11111222,99999999' 
TABS,ioos:station:wmo:42043:1,2019-10-06T05:00:00Z,28.9818,-94.9186,-2.0,37.3,13.52,-99999.0,'11111222,11111222,99999999' 
TABS,ioos:station:wmo:42043:1,2019-10-06T06:00:00Z,28.9818,-94.9186,-2.0,60.6,7.48,-99999.0,'11111222,11111222,99999999' 
TABS,ioos:station:wmo:42043:1,2019-10-06T07:00:00Z,28.9818,-94.9186,-2.0,54.9,5.82,-99999.0,'11111222,11111222,99999999' 
TABS,ioos:station:wmo:42043:1,2019-10-06T08:00:00Z,28.9818,-94.9186,-2.0,59.6,5.59,-99999.0,'11111222,11111222,99999999' 
TABS,ioos:station:wmo:42043:1,2019-10-06T09:00:00Z,28.9818,-94.9186,-2.0,11.4,4.84,-99999.0,'11111222,11111222,99999999' 
TABS,ioos:station:wmo:42043:1,2019-10-06T10:00:00Z,28.9818,-94.9186,-2.0,43.0,13.7,-99999.0,'11111222,11111222,99999999' 
TABS,ioos:station:wmo:42043:1,2019-10-06T11:00:00Z,28.9818,-94.9186,-2.0,91.3,12.38,-99999.0,'11111222,11111222,99999999' 
TABS,ioos:station:wmo:42043:1,2019-10-06T12:00:00Z,28.9818,-94.9186,-2.0,91.5,10.8,-99999.0,'11111222,11111222,99999999' 
TABS,ioos:station:wmo:42043:1,2019-10-06T13:00:00Z,28.9818,-94.9186,-2.0,93.6,14.03,-99999.0,'11111222,11111222,99999999' 
TABS,ioos:station:wmo:42043:1,2019-10-06T14:00:00Z,28.9818,-94.9186,-2.0,81.3,16.47,-99999.0,'11111222,11111222,99999999' 
TABS,ioos:station:wmo:42043:1,2019-10-06T15:00:00Z,28.9818,-94.9186,-2.0,69.1,8.86,-99999.0,'11111222,11111222,99999999' 
TABS,ioos:station:wmo:42043:1,2019-10-06T16:00:00Z,28.9818,-94.9186,-2.0,98.7,5.39,-99999.0,'11111222,11111222,99999999' 
TABS,ioos:station:wmo:42043:1,2019-10-06T17:00:00Z,28.9818,-94.9186,-2.0,136.6,7.05,-99999.0,'11111222,11111222,99999999' 
TABS,ioos:station:wmo:42043:1,2019-10-06T18:00:00Z,28.9818,-94.9186,-2.0,190.9,12.65,-99999.0,'11111222,11111222,99999999' 
TABS,ioos:station:wmo:42043:1,2019-10-06T19:00:00Z,28.9818,-94.9186,-2.0,234.0,23.37,-99999.0,'11111222,11111222,99999999' 
TABS,ioos:station:wmo:42043:1,2019-10-06T20:00:00Z,28.9818,-94.9186,-2.0,214.8,22.76,-99999.0,'11111222,11111222,99999999' 
TABS,ioos:station:wmo:42043:1,2019-10-06T21:00:00Z,28.9818,-94.9186,-2.0,219.9,21.02,-99999.0,'11111222,11111222,99999999' 
TABS,ioos:station:wmo:42043:1,2019-10-06T22:00:00Z,28.9818,-94.9186,-2.0,228.7,21.32,-99999.0,'11111222,11111222,99999999' 
TABS,ioos:station:wmo:42043:1,2019-10-06T23:00:00Z,28.9818,-94.9186,-2.0,238.5,20.26,-99999.0,'11111222,11111222,99999999' 
TABS,ioos:station:wmo:42043:1,2019-10-06T23:30:00Z,28.9818,-94.9186,-2.0,246.8,15.87,-99999.0,'11111222,11111222,99999999' 
TABS,ioos:station:wmo:42043:1,2019-10-07T04:00:00Z,28.9818,-94.9186,-2.0,312.4,20.08,-99999.0,'11111222,11111222,99999999' 
TABS,ioos:station:wmo:42043:1,2019-10-07T04:30:00Z,28.9818,-94.9186,-2.0,326.1,16.25,-99999.0,'11111222,11111222,99999999' 
TABS,ioos:station:wmo:42043:1,2019-10-07T06:00:00Z,28.9818,-94.9186,-2.0,328.2,15.68,-99999.0,'11111222,11111222,99999999' 
TABS,ioos:station:wmo:42043:1,2019-10-07T07:00:00Z,28.9818,-94.9186,-2.0,354.9,17.56,-99999.0,'11111222,11111222,99999999' 
TABS,ioos:station:wmo:42043:1,2019-10-07T08:00:00Z,28.9818,-94.9186,-2.0,344.6,16.99,-99999.0,'11111222,11111222,99999999' 
TABS,ioos:station:wmo:42043:1,2019-10-07T09:00:00Z,28.9818,-94.9186,-2.0,342.2,10.15,-99999.0,'11111222,11111222,99999999' 
TABS,ioos:station:wmo:42043:1,2019-10-07T10:00:00Z,28.9818,-94.9186,-2.0,332.2,7.68,-99999.0,'11111222,11111222,99999999' 
TABS,ioos:station:wmo:42043:1,2019-10-07T11:00:00Z,28.9818,-94.9186,-2.0,245.3,6.51,-99999.0,'11111222,11111222,99999999' 
TABS,ioos:station:wmo:42043:1,2019-10-07T12:00:00Z,28.9818,-94.9186,-2.0,157.2,7.57,-99999.0,'11111222,11111222,99999999' 
TABS,ioos:station:wmo:42043:1,2019-10-07T14:30:00Z,28.9818,-94.9186,-2.0,175.3,40.35,-99999.0,'11111222,11111222,99999999' 
TABS,ioos:station:wmo:42043:1,2019-10-07T15:00:00Z,28.9818,-94.9186,-2.0,184.2,47.21,-99999.0,'11111222,11111222,99999999' 
TABS,ioos:station:wmo:42043:1,2019-10-07T16:00:00Z,28.9818,-94.9186,-2.0,199.5,43.51,-99999.0,'11111222,11111222,99999999' 
TABS,ioos:station:wmo:42043:1,2019-10-07T17:00:00Z,28.9818,-94.9186,-2.0,213.7,38.09,-99999.0,'11111222,11111222,99999999' 
TABS,ioos:station:wmo:42043:1,2019-10-07T18:00:00Z,28.9818,-94.9186,-2.0,217.9,38.51,-99999.0,'11111222,11111222,99999999' 
TABS,ioos:station:wmo:42043:1,2019-10-07T19:00:00Z,28.9818,-94.9186,-2.0,218.4,38.75,-99999.0,'11111222,11111222,99999999' 
TABS,ioos:station:wmo:42043:1,2019-10-07T20:00:00Z,28.9818,-94.9186,-2.0,212.6,31.08,-99999.0,'11111222,11111222,99999999' 
TABS,ioos:station:wmo:42043:1,2019-10-07T21:00:00Z,28.9818,-94.9186,-2.0,200.1,21.89,-99999.0,'11111222,11111222,99999999' 
TABS,ioos:station:wmo:42043:1,2019-10-07T22:00:00Z,28.9818,-94.9186,-2.0,235.1,23.87,-99999.0,'11111222,11111222,99999999' 
TABS,ioos:station:wmo:42043:1,2019-10-07T23:00:00Z,28.9818,-94.9186,-2.0,228.8,14.67,-99999.0,'11111222,11111222,99999999' 
TABS,ioos:station:wmo:42043:1,2019-10-07T23:30:00Z,28.9818,-94.9186,-2.0,219.5,13.88,-99999.0,'11111222,11111222,99999999' 
TABS,ioos:station:wmo:42043:1,2019-10-08T04:00:00Z,28.9818,-94.9186,-2.0,180.1,22.25,-99999.0,'11111222,11111222,99999999' 
TABS,ioos:station:wmo:42043:1,2019-10-08T05:00:00Z,28.9818,-94.9186,-2.0,170.0,28.66,-99999.0,'11111222,11111222,99999999' 
TABS,ioos:station:wmo:42043:1,2019-10-08T06:00:00Z,28.9818,-94.9186,-2.0,162.7,30.11,-99999.0,'11111222,11111222,99999999' 
TABS,ioos:station:wmo:42043:1,2019-10-08T07:00:00Z,28.9818,-94.9186,-2.0,222.8,23.27,-99999.0,'11111222,11111222,99999999' 
TABS,ioos:station:wmo:42043:1,2019-10-08T08:00:00Z,28.9818,-94.9186,-2.0,248.3,20.95,-99999.0,'11111222,11111222,99999999' 
TABS,ioos:station:wmo:42043:1,2019-10-08T09:00:00Z,28.9818,-94.9186,-2.0,264.0,15.09,-99999.0,'11111222,11111222,99999999' 
TABS,ioos:station:wmo:42043:1,2019-10-08T10:00:00Z,28.9818,-94.9186,-2.0,285.3,17.0,-99999.0,'11111222,11111222,99999999' 
TABS,ioos:station:wmo:42043:1,2019-10-08T11:00:00Z,28.9818,-94.9186,-2.0,290.5,12.63,-99999.0,'11111222,11111222,99999999' 
TABS,ioos:station:wmo:42043:1,2019-10-08T12:00:00Z,28.9818,-94.9186,-2.0,288.3,19.92,-99999.0,'11111222,11111222,99999999' 
TABS,ioos:station:wmo:42043:1,2019-10-08T13:00:00Z,28.9818,-94.9186,-2.0,272.3,21.32,-99999.0,'11111222,11111222,99999999' 
TABS,ioos:station:wmo:42043:1,2019-10-08T14:00:00Z,28.9818,-94.9186,-2.0,277.4,19.61,-99999.0,'11111222,11111222,99999999' 
TABS,ioos:station:wmo:42043:1,2019-10-08T15:00:00Z,28.9818,-94.9186,-2.0,277.0,26.3,-99999.0,'11111222,11111222,99999999' 
TABS,ioos:station:wmo:42043:1,2019-10-08T15:30:00Z,28.9818,-94.9186,-2.0,276.7,27.36,-99999.0,'11111222,11111222,99999999' 
TABS,ioos:station:wmo:42043:1,2019-10-08T17:00:00Z,28.9818,-94.9186,-2.0,265.7,22.46,-99999.0,'11111222,11111222,99999999' 
TABS,ioos:station:wmo:42043:1,2019-10-08T18:00:00Z,28.9818,-94.9186,-2.0,261.3,23.91,-99999.0,'11111222,11111222,99999999' 
TABS,ioos:station:wmo:42043:1,2019-10-08T19:00:00Z,28.9818,-94.9186,-2.0,259.2,27.7,-99999.0,'11111222,11111222,99999999' 
TABS,ioos:station:wmo:42043:1,2019-10-08T20:00:00Z,28.9818,-94.9186,-2.0,250.6,30.75,-99999.0,'11111222,11111222,99999999' 
TABS,ioos:station:wmo:42043:1,2019-10-08T21:00:00Z,28.9818,-94.9186,-2.0,264.4,35.15,-99999.0,'11111222,11111222,99999999' 
TABS,ioos:station:wmo:42043:1,2019-10-08T22:00:00Z,28.9818,-94.9186,-2.0,261.9,29.15,-99999.0,'11111222,11111222,99999999' 
TABS,ioos:station:wmo:42043:1,2019-10-08T23:00:00Z,28.9818,-94.9186,-2.0,265.7,31.15,-99999.0,'11111222,11111222,99999999' 
TABS,ioos:station:wmo:42043:1,2019-10-08T23:30:00Z,28.9818,-94.9186,-2.0,270.5,28.24,-99999.0,'11111222,11111222,99999999' 
TABS,ioos:station:wmo:42043:1,2019-10-09T04:00:00Z,28.9818,-94.9186,-2.0,308.1,18.21,-99999.0,'11111222,11111222,99999999' 
TABS,ioos:station:wmo:42043:1,2019-10-09T05:00:00Z,28.9818,-94.9186,-2.0,307.9,14.36,-99999.0,'11111222,11111222,99999999' 
TABS,ioos:station:wmo:42043:1,2019-10-09T06:00:00Z,28.9818,-94.9186,-2.0,318.8,15.86,-99999.0,'11111222,11111222,99999999' 
TABS,ioos:station:wmo:42043:1,2019-10-09T07:00:00Z,28.9818,-94.9186,-2.0,323.0,18.2,-99999.0,'11111222,11111222,99999999' 
TABS,ioos:station:wmo:42043:1,2019-10-09T08:00:00Z,28.9818,-94.9186,-2.0,298.8,28.07,-99999.0,'11111222,11111222,99999999' 
TABS,ioos:station:wmo:42043:1,2019-10-09T09:00:00Z,28.9818,-94.9186,-2.0,292.8,25.2,-99999.0,'11111222,11111222,99999999' 
TABS,ioos:station:wmo:42043:1,2019-10-09T10:00:00Z,28.9818,-94.9186,-2.0,295.7,28.18,-99999.0,'11111222,11111222,99999999' 
TABS,ioos:station:wmo:42043:1,2019-10-09T11:00:00Z,28.9818,-94.9186,-2.0,289.8,23.79,-99999.0,'11111222,11111222,99999999' 
TABS,ioos:station:wmo:42043:1,2019-10-09T12:00:00Z,28.9818,-94.9186,-2.0,283.4,20.21,-99999.0,'11111222,11111222,99999999' 
TABS,ioos:station:wmo:42043:1,2019-10-09T13:00:00Z,28.9818,-94.9186,-2.0,284.6,18.55,-99999.0,'11111222,11111222,99999999' 
TABS,ioos:station:wmo:42043:1,2019-10-09T14:00:00Z,28.9818,-94.9186,-2.0,287.1,18.63,-99999.0,'11111222,11111222,99999999' 
TABS,ioos:station:wmo:42043:1,2019-10-09T15:00:00Z,28.9818,-94.9186,-2.0,293.2,17.47,-99999.0,'11111222,11111222,99999999' 
TABS,ioos:station:wmo:42043:1,2019-10-09T16:00:00Z,28.9818,-94.9186,-2.0,321.3,25.35,-99999.0,'11111222,11111222,99999999' 
TABS,ioos:station:wmo:42043:1,2019-10-09T17:00:00Z,28.9818,-94.9186,-2.0,315.6,22.47,-99999.0,'11111222,11111222,99999999' 
TABS,ioos:station:wmo:42043:1,2019-10-09T18:00:00Z,28.9818,-94.9186,-2.0,325.1,22.09,-99999.0,'11111222,11111222,99999999' 
TABS,ioos:station:wmo:42043:1,2019-10-09T19:00:00Z,28.9818,-94.9186,-2.0,328.0,22.34,-99999.0,'11111222,11111222,99999999' 
TABS,ioos:station:wmo:42043:1,2019-10-09T20:00:00Z,28.9818,-94.9186,-2.0,324.9,19.09,-99999.0,'11111222,11111222,99999999' 
TABS,ioos:station:wmo:42043:1,2019-10-09T21:00:00Z,28.9818,-94.9186,-2.0,313.8,15.46,-99999.0,'11111222,11111222,99999999' 
TABS,ioos:station:wmo:42043:1,2019-10-09T22:00:00Z,28.9818,-94.9186,-2.0,307.5,15.9,-99999.0,'11111222,11111222,99999999' 
TABS,ioos:station:wmo:42043:1,2019-10-09T22:30:00Z,28.9818,-94.9186,-2.0,300.7,13.87,-99999.0,'11111222,11111222,99999999' 
TABS,ioos:station:wmo:42043:1,2019-10-09T23:30:00Z,28.9818,-94.9186,-2.0,256.5,17.45,-99999.0,'11111222,11111222,99999999' 
TABS,ioos:station:wmo:42043:1,2019-10-10T04:00:00Z,28.9818,-94.9186,-2.0,305.1,13.33,-99999.0,'11111222,11111222,99999999' 
TABS,ioos:station:wmo:42043:1,2019-10-10T05:00:00Z,28.9818,-94.9186,-2.0,347.7,11.01,-99999.0,'11111222,11111222,99999999' 
TABS,ioos:station:wmo:42043:1,2019-10-10T06:00:00Z,28.9818,-94.9186,-2.0,356.5,14.56,-99999.0,'11111222,11111222,99999999' 
TABS,ioos:station:wmo:42043:1,2019-10-10T07:00:00Z,28.9818,-94.9186,-2.0,351.7,14.8,-99999.0,'11111222,11111222,99999999' 
TABS,ioos:station:wmo:42043:1,2019-10-10T08:00:00Z,28.9818,-94.9186,-2.0,357.4,8.76,-99999.0,'11111222,11111222,99999999' 
TABS,ioos:station:wmo:42043:1,2019-10-10T09:00:00Z,28.9818,-94.9186,-2.0,343.0,12.39,-99999.0,'11111222,11111222,99999999' 